Regional Weather Roundup
Issued by NWS Albany, NY

Home | Current Version | Previous Version | Graphics & Text | Print | Product List | Glossary On
Versions: 1 2 3 4 5 6 7 8 9 10 11 12 13 14 15 16 17 18 19 20 21 22 23 24 25 26 27 28 29 30 31 32 33 34 35 36 37 38 39 40 41 42 43 44 45 46 47 48 49 50
000
ASUS41 KALY 300210
RWRALY

NEW YORK STATE HOURLY WEATHER ROUNDUP
NATIONAL WEATHER SERVICE ALBANY NY
1000 PM EDT TUE JUL 29 2014

NOTE: "FAIR" INDICATES FEW OR NO CLOUDS BELOW 12,000 FEET WITH NO
SIGNIFICANT WEATHER AND/OR NO OBSTRUCTIONS TO VISIBILITY.

NYZ032-033-038>043-046>054-057>066-NYZ062>081-300300-
EAST


CITY           SKY/WX    TMP DP  RH WIND       PRES   REMARKS
ALBANY         MOCLDY    64  53  67 W6        29.96R
GLENS FALLS    CLEAR     60  57  89 NW3       29.95R
POUGHKEEPSIE   CLOUDY    66  57  72 S3        29.96R
NEWBURGH       MOCLDY    64  55  72 W7        29.98R
MONTGOMERY     CLOUDY    63  55  75 CALM      29.98R
WHITE PLAINS   PTCLDY    64  53  67 NW5       29.96R
ISLIP          MOCLDY    71  53  52 CALM      29.94R
NEW YORK CITY  MOCLDY    71  52  50 N8        29.96R
CENTRAL PARK   PTCLDY    70  50  49 VRB3      29.99R
$$

NYZ005>009-017-018-044>046-055-056-300300-
CENTRAL


CITY           SKY/WX    TMP DP  RH WIND       PRES   REMARKS
FULTON         CLEAR     55  52  89 CALM      29.98R
SYRACUSE       PTCLDY    59  51  75 CALM      29.99R
ROME           CLEAR     58  52  80 CALM      30.00R
ELMIRA         CLOUDY    59  55  87 CALM      30.00R
BINGHAMTON     CLOUDY    60  49  66 CALM      30.01R
MONTICELLO     CLOUDY    59  54  82 NW7       30.02R
$$

NYZ026>034-041>043-300300-
NORTH


CITY           SKY/WX    TMP DP  RH WIND       PRES   REMARKS
WATERTOWN      PTCLDY    59  51  75 S3        29.97R
FORT DRUM      NOT AVBL
MASSENA        PTCLDY    60  56  86 SW6       29.95R
SARANAC LAKE   MOCLDY    49  49 100 CALM      29.98R
PLATTSBURGH    CLEAR     57  55  93 CALM      29.95R
$$

NYZ001>004-010>016-019>021-300300-
WEST


CITY           SKY/WX    TMP DP  RH WIND       PRES   REMARKS
NIAGARA FALLS  LGT RAIN  62  57  83 SW6       29.97R
BUFFALO        CLOUDY    65  53  65 W7        29.97S
DUNKIRK        CLOUDY    60  51  72 S8        29.99S
JAMESTOWN      PTCLDY    54  48  82 SW3       30.02S
WELLSVILLE     PTCLDY    57  48  72 SW3       30.04R
ROCHESTER      PTCLDY    61  53  75 SW5       29.98R
PENN YAN       MOCLDY    57  53  86 CALM      30.01R
$$

             KEY
       WCI = WIND CHILL INDEX
       VSB = VISIBILITY
       HX  = HEAT INDEX
$$


USA.gov is the U.S. government's official web portal to all federal, state and local government web resources and services.